Portada
METAR-TAF:

METAR-TAF

Aeroports :

Longreach, Austràlia

latitud: 23-26-03S, longitud: 144-16-49E, altitud: 191 m

Observació

L'informe es va fer fa 39 minuts, a les 03:00 UTC
Vent 4 kt del Sud, variant entre Sud/Sud-Est i Sud-Oest
Temperatura 28°C
Humitat 35%
Pressió 1017 hPa
Visibilitat 10 km o més

METAR: YLRE 260300Z AUTO 19004KT 150V230 9999 // NCD 28/11 Q1017

Hora: 13:39 (03:39 UTC)


TAF: manca

Observacions i pronòstics meteorològics de més de 4000 aeroports (METAR i TAF).

Les estacions disponibles són els punts grocs i vermells al mapa.

Posi el ratolí al punt desitjat per veure el nom de l'estació.

Feu clic per veure les observacions i els pronòstics meteorològics.

Per canviar el mapa: feu clic els botons verds amb una creu de color negre per apropar; al botó verd amb un guió per allunyar la imatge; o en les fletxes verdes per a mapes adjacents.


METAR-TAF: